Regional Weather Roundup
Issued by NWS

Home | Current Version | Previous Version | Text Only | Print | Product List | Glossary On
Versions: 1 2 3 4 5 6 7 8 9 10 11 12 13 14 15 16 17 18 19 20 21 22 23 24 25 26 27 28 29 30 31 32 33 34 35 36 37 38 39 40 41 42 43 44 45 46 47 48 49 50
000
ASUS43 KDTX 300501
RWRMI
MICHIGAN HOURLY REGIONAL WEATHER ROUNDUP
NATIONAL WEATHER SERVICE DETROIT/PONTIAC MI
100 AM EDT TUE AUG 30 2016

NOTE: "FAIR" INDICATES FEW OR NO CLOUDS BELOW 12,000 FEET WITH NO
SIGNIFICANT WEATHER AND/OR OBSTRUCTION TO VISIBILITY.

MIZ047>049-052>055-059>063-066>070-074>076-081>083-300600-
SOUTHEAST LOWER MICHIGAN

CITY           SKY/WX    TMP DP  RH WIND       PRES   REMARKS
ADRIAN         CLEAR     65  65 100 CALM      30.22R
ALMA           MOCLDY    65  65 100 CALM      30.19S
ANN ARBOR      FOG       62  62 100 CALM      30.21R VSB 1/2
BAD AXE        PTCLDY    62  60  92 S3        30.20S
CARO           PTCLDY    64  64  98 CALM      30.19S
DETROIT CITY   PTCLDY    70  67  90 CALM      30.21R
DETROIT        PTCLDY    70  67  90 CALM      30.21S
FLINT          CLOUDY    69  65  86 S7        30.19F
GROSSE ILE     PTCLDY    68  66  94 CALM      30.20R
HILLSDALE      CLEAR     67  63  86 S3        30.22S
HOWELL         PTCLDY    68  66  94 CALM      30.20F

CITY           SKY/WX    TMP DP  RH WIND       PRES   REMARKS
JACKSON        CLEAR     69  67  93 S3        30.21S
LAMBERTVILLE   PTCLDY    65  64  94 CALM      30.21S
LANSING        PTCLDY    71  65  81 CALM      30.20S
LAPEER         FAIR      64  63  97 CALM      30.21S
MASON          CLEAR     67  64  91 SE6       30.21R
MONROE         FOG       63  63 100 CALM      30.19S VSB 1/2
MT. CLEMENS    PTCLDY    68  61  78 SE1       30.18F
PONTIAC        PTCLDY    70  63  78 SE3       30.20F
PORT HURON     PTCLDY    59  59 100 CALM      30.21R
TRI CITIES     CLOUDY    69  67  93 SE3       30.19S
MIDLAND        FAIR      64  64 100 CALM      30.17S
TROY           PTCLDY    73  61  67 CALM      30.23R
SAGINAW HB     MOCLDY    66  63  88 CALM      30.18S
$$
MIZ043>046-050>051-056>058-064>065-071>073-077>080-300600-
SOUTHWEST LOWER MICHIGAN

CITY           SKY/WX    TMP DP  RH WIND       PRES   REMARKS
BATTLE CREEK   CLEAR     69  69 100 S7        30.21R
BENTON HARBOR  PTCLDY    73  69  87 CALM      30.18S
BIG RAPIDS     PTCLDY    66  65  96 CALM      30.18F
COLDWATER      CLEAR     70  68  94 SE6       30.21S
FREMONT        FAIR      67  66  98 CALM      30.18S FOG
HOLLAND        CLEAR     70  68  93 CALM      30.19S
GRAND RAPIDS   CLEAR     71  67  87 CALM      30.19S
IONIA          FAIR      69  67  93 SE3       30.19S
KALAMAZOO      CLEAR     73  67  81 S6        30.20R
LUDINGTON      PTCLDY    64  64 100 CALM      30.17S FOG
MARSHALL       CLEAR     70  69  98 SE5       30.21R
MOUNT PLEASANT FOG       66  65  97 CALM      30.18F VSB 3/4
MUSKEGON       CLEAR     70  69  97 CALM      30.18F
SOUTH HAVEN    CLEAR     72  71  97 CALM      30.19S
$$
MIZ016>042-300600-
NORTHERN LOWER MICHIGAN

CITY           SKY/WX    TMP DP  RH WIND       PRES   REMARKS
ALPENA         CLOUDY    65  60  84 S3        30.16F
BEAVER ISLAND  MOCLDY    71  65  82 SW8       30.13S
BELLAIRE       MOCLDY    64  62  94 CALM      30.16S FOG
CADILLAC       CLOUDY    63  62  96 CALM      30.20S FOG
CHARLEVOIX     MOCLDY    71  67  86 S6        30.17S
FRANKFORT      PTCLDY    66  64  90 CALM      30.17R
GAYLORD        PTCLDY    68  63  84 CALM      30.18F
GRAYLING       PTCLDY    64  63  94 CALM      30.19F
HARBOR SPRINGS MOCLDY    66  64  96 CALM      30.14S
HOUGHTON LAKE  PTCLDY    63  60  90 CALM      30.20S
MANISTEE       CLOUDY    63  63 100 CALM      30.18R
OSCODA         CLOUDY    64  62  94 SW3       30.17S
PELLSTON       PTCLDY    67  63  87 E3        30.14F
ROGERS CITY    CLEAR     67  61  80 S7        30.14F
TRAVERSE CITY  CLOUDY    72  67  84 VRB3      30.14F
$$
MIZ007>008-015-300600-
EASTERN UPPER MICHIGAN

CITY           SKY/WX    TMP DP  RH WIND       PRES   REMARKS
KINROSS        CLOUDY    63  62  97 S7        30.12F
MACKINAC ISLAN CLOUDY    68  64  86 SW7       30.12S
NEWBERRY       CLOUDY    68  66  92 SW12      30.11S
S. S. MARIE    CLOUDY    66  63  90 E3        30.11F
$$
MIZ004>006-011>014-085-300600-
CENTRAL UPPER MICHIGAN

CITY           SKY/WX    TMP DP  RH WIND       PRES   REMARKS
MANISTIQUE     CLOUDY    68  66  93 S5        30.11S
ESCANABA       PTCLDY    72  69  90 SW6       30.11S
MENOMINEE      PTCLDY   N/A N/A N/A SW6       30.15R
SAWYER-GWINN   CLOUDY    69  67  90 SW7       30.13S
$$
MIZ001>003-009>011-084-300600-
WESTERN UPPER MICHIGAN

CITY           SKY/WX    TMP DP  RH WIND       PRES   REMARKS
IRON MOUNTAIN  MOCLDY    73  67  81 W5        30.13S
HOUGHTON       CLOUDY    68  62  81 NW8       30.09F
IRONWOOD       CLOUDY    68  66  93 S6        30.14F
$$

ABBREVIATIONS USED IN REMARKS
   TC - TEMPERATURE IN CELSIUS
  WCI - WIND CHILL INDEX
   HX - HEAT INDEX
  VSB - VISIBILITY





USA.gov is the U.S. government's official web portal to all federal, state and local government web resources and services.